Regional Weather Roundup
Issued by NWS

Home | Current Version | Previous Version | Graphics & Text | Print | Product List | Glossary On
Versions: 1 2 3 4 5 6 7 8 9 10 11 12 13 14 15 16 17 18 19 20 21 22 23 24 25 26 27 28 29 30 31 32 33 34 35 36 37 38 39 40 41 42 43 44 45 46 47 48 49 50
000
ASUS43 KMKX 240611
RWRWI

WISCONSIN REGIONAL WEATHER ROUNDUP
NATIONAL WEATHER SERVICE MILWAUKEE/SULLIVAN WI
100 AM CDT SUN JUL 24 2016

NOTE: "FAIR" INDICATES FEW OR NO CLOUDS BELOW 12,000 FEET WITH NO
SIGNIFICANT WEATHER AND/OR OBSTRUCTIONS TO VISIBILITY.

WIZ001-002-006>008-014>016-023>028-240700-
NORTHWEST WISCONSIN

CITY           SKY/WX    TMP DP  RH WIND       PRES   REMARKS
SUPERIOR ARPT  CLOUDY    62  61  95 NE5       29.79S
6HR MIN TEMP:  62; 6HR MAX TEMP:  64;

ASHLAND        CLOUDY    71  68  90 S7        29.80F
6HR MIN TEMP:  69; 6HR MAX TEMP:  73;

HAYWARD        CLOUDY    69  67  93 S6        29.82F
6HR MIN TEMP:  69; 6HR MAX TEMP:  74; 6HR PCP: TRACE;

SIREN          CLOUDY    72  68  88 S9G17     29.79F
CUMBERLAND     CLOUDY    68  66  94 SE5       29.83S
RICE LAKE      CLOUDY    69  67  93 CALM      29.83F
6HR MIN TEMP:  69; 6HR MAX TEMP:  72;

CHETEK         CLOUDY    69  68  98 SE6       29.83F
6HR MIN TEMP:  69; 6HR MAX TEMP:  71;

LADYSMITH      CLOUDY    69  67  94 SE6       29.86F
6HR MIN TEMP:  69; 6HR MAX TEMP:  72; 6HR PCP:  0.04;

EAU CLAIRE     CLOUDY    70  69  97 SE6       29.82F
6HR MIN TEMP:  69; 6HR MAX TEMP:  73; 6HR PCP:  0.01;

MENOMONIE      CLOUDY    70  70  99 SE5       29.82F
6HR MIN TEMP:  70; 6HR MAX TEMP:  74;

NEW RICHMOND   CLOUDY    72  70  95 SE7       29.80F
6HR MIN TEMP:  70; 6HR MAX TEMP:  74;

OSCEOLA        CLOUDY    72  72 100 SE6       29.81S
6HR MIN TEMP:  71; 6HR MAX TEMP:  76;

$$

WIZ003>005-009-010-017-018-240700-
NORTH CENTRAL WISCONSIN

CITY           SKY/WX    TMP DP  RH WIND       PRES   REMARKS
MANITOWISH WTR CLOUDY    67  67 100 S5        29.87F
6HR MIN TEMP:  67; 6HR MAX TEMP:  73; 6HR PCP:  0.05;

ARBOR VITAE    CLOUDY    70  68  95 CALM      29.88F
6HR MIN TEMP:  69; 6HR MAX TEMP:  74; 6HR PCP:  0.26;

WOODRUFF       CLOUDY    70  68  95 CALM      29.88F
6HR MIN TEMP:  69; 6HR MAX TEMP:  74; 6HR PCP:  0.26;

RHINELANDER    CLOUDY    70  68  93 CALM      29.90S
6HR MIN TEMP:  69; 6HR MAX TEMP:  74; 6HR PCP:  0.36;

EAGLE RIVER    CLOUDY    68  68 100 CALM      29.89F
6HR MIN TEMP:  67; 6HR MAX TEMP:  74;

LAND O LAKES   CLOUDY    68  67  97 CALM      29.90F
6HR MIN TEMP:  68; 6HR MAX TEMP:  76; 6HR PCP:  0.08;

PHILLIPS       CLOUDY    68  67  98 CALM      29.87F
6HR MIN TEMP:  68; 6HR MAX TEMP:  72; 6HR PCP:  0.19;

TOMAHAWK       CLOUDY    67  66  95 CALM      29.89S
6HR MIN TEMP:  67; 6HR MAX TEMP:  72;

MEDFORD        CLOUDY    67  67 100 SE5       29.87S
6HR MIN TEMP:  67; 6HR MAX TEMP:  69; 6HR PCP:  0.11;

MERRILL        LGT RAIN  69  69 100 S3        29.89S
6HR MIN TEMP:  68; 6HR MAX TEMP:  74; 6HR PCP:  0.16;

$$

WIZ029-030-035-036-043>047-240700-
CENTRAL WISCONSIN

CITY           SKY/WX    TMP DP  RH WIND       PRES   REMARKS
WAUSAU         CLOUDY    70  68  93 S12       29.86S
6HR MIN TEMP:  70; 6HR MAX TEMP:  72; 6HR PCP:  0.03;

MOSINEE        LGT RAIN  68  68 100 S7        29.88F
MARSHFIELD     CLOUDY    71  67  87 S7        29.85F
6HR MIN TEMP:  69; 6HR MAX TEMP:  71; 6HR PCP:  0.19;

STEVENS POINT  HVY RAIN  68  68 100 CALM      29.89R
6HR MIN TEMP:  68; 6HR MAX TEMP:  70; 6HR PCP:  0.41;

WAUPACA        CLOUDY    73  73  99 SE7       29.87F FOG
6HR MIN TEMP:  73; 6HR MAX TEMP:  76;

WAUTOMA        CLOUDY    71  70  96 S7        29.86F THUNDER
6HR MIN TEMP:  71; 6HR MAX TEMP:  73; 6HR PCP:  0.01;

WISC RAPIDS    CLOUDY    72  67  84 N6        29.88R
6HR MIN TEMP:  70; 6HR MAX TEMP:  72; 6HR PCP: TRACE;

CAMP DOUGLAS   CLOUDY    72  70  93 S8        29.85R
6HR MIN TEMP:  70; 6HR MAX TEMP:  72; 6HR PCP:  0.01;

$$

WIZ011>013-019>022-031-037>040-048>050-240700-
NORTHEAST WISCONSIN

CITY           SKY/WX    TMP DP  RH WIND       PRES   REMARKS
ANTIGO         LGT RAIN  68  68  99 CALM      29.91R
6HR MIN TEMP:  68; 6HR MAX TEMP:  74; 6HR PCP:  0.09;

SHAWANO        CLOUDY    74  70  87 CALM      29.87S
6HR MIN TEMP:  73; 6HR MAX TEMP:  79;

OCONTO         CLOUDY   N/A N/A N/A CALM      29.86S
STURGEON BAY   CLOUDY    72  70  93 SE7       29.89F
6HR MIN TEMP:  72; 6HR MAX TEMP:  75;

GREEN BAY      LGT RAIN  74  73  97 S12       29.87S
6HR MIN TEMP:  74; 6HR MAX TEMP:  78; 6HR PCP:  0.13;

MANITOWOC      CLOUDY    71  67  87 S8        29.88F
6HR MIN TEMP:  68; 6HR MAX TEMP:  73; 6HR PCP: TRACE;

APPLETON       DRIZZLE   72  70  94 SE6       29.88R
CLINTONVILLE   CLOUDY    72  70  94 S9        29.87S
OSHKOSH        LGT RAIN  72  68  87 S13       29.86S FOG
6HR MIN TEMP:  72; 6HR MAX TEMP:  75; 6HR PCP:  0.10;

$$

WIZ032>034-041-042-053>061-240700-
SOUTHWEST WISCONSIN

CITY           SKY/WX    TMP DP  RH WIND       PRES   REMARKS
LA CROSSE      MOCLDY    74  69  85 SE9       29.82F
6HR MIN TEMP:  73; 6HR MAX TEMP:  75;

SPARTA         MOCLDY    71  69  91 SW3       29.85F
6HR MIN TEMP:  69; 6HR MAX TEMP:  72;

VIROQUA        CLEAR     70  70 100 S8        29.87F
6HR MIN TEMP:  68; 6HR MAX TEMP:  71;

BOSCOBEL       CLOUDY    72  70  93 W3        29.86S
6HR MIN TEMP:  72; 6HR MAX TEMP:  74; 6HR PCP:  0.01;

PRAIRIE DU CHI MOCLDY    72  69  92 E6        29.85S
6HR MIN TEMP:  70; 6HR MAX TEMP:  72;

PLATTEVILLE    MOCLDY    72  72  99 S9        29.89S
6HR MIN TEMP:  70; 6HR MAX TEMP:  72; 6HR PCP:  0.06;

$$

WIZ056-057-062-063-064-067-068-240700-
SOUTH CENTRAL WISCONSIN

CITY           SKY/WX    TMP DP  RH WIND       PRES   REMARKS
REEDSBURG      CLOUDY    71  71  98 S5        29.86F
6HR MIN TEMP:  70; 6HR MAX TEMP:  72; 6HR PCP:  0.02;

BARABOO/DELLS  CLOUDY    71  68  92 SW3       29.87S
6HR MIN TEMP:  70; 6HR MAX TEMP:  72; 6HR PCP:  0.03;

LONE ROCK      CLOUDY    72  70  93 E5        29.87S
6HR MIN TEMP:  71; 6HR MAX TEMP:  72; 6HR PCP:  0.04;

MINERAL POINT  CLOUDY    72  72 100 SE10      29.89S
MADISON        CLOUDY    72  70  93 S12       29.88F
6HR MIN TEMP:  71; 6HR MAX TEMP:  72; 6HR PCP:  0.58;

MIDDLETON      CLOUDY    73  72  97 S8        29.90R
6HR MIN TEMP:  72; 6HR MAX TEMP:  73; 6HR PCP:  0.35;

WATERTOWN      CLOUDY    71  71 100 S8        29.89F
6HR MIN TEMP:  70; 6HR MAX TEMP:  72;

MONROE         CLOUDY    70  68  94 S12       29.91F
JANESVILLE     CLOUDY    70  70 100 SE10      29.91S
$$

WIZ051-052-058>065-066-070>072-240700-
SOUTHEAST WISCONSIN

CITY           SKY/WX    TMP DP  RH WIND       PRES   REMARKS
MILWAUKEE      TSTM      74  68  81 NW6       29.94R
6HR MIN TEMP:  73; 6HR MAX TEMP:  76; 6HR PCP:  0.23;

WAUKESHA       HVY RAIN  68  68 100 SE9       29.93F
MILWAUKEE/TIMM LGT RAIN  70  66  88 S7        29.93S
RACINE         CLOUDY    73  66  78 S14G22    29.93F
6HR MIN TEMP:  71; 6HR MAX TEMP:  74; 6HR PCP:  0.30;

BURLINGTON     CLOUDY    70  69  96 S3        29.92F
6HR MIN TEMP:  70; 6HR MAX TEMP:  72; 6HR PCP:  0.22;

KENOSHA        CLOUDY    72  68  87 S15       29.93F
6HR MIN TEMP:  71; 6HR MAX TEMP:  74; 6HR PCP:  0.31;

FOND DU LAC    MOCLDY    72  69  90 S16       29.87F
6HR MIN TEMP:  72; 6HR MAX TEMP:  76; 6HR PCP:  0.14;

SHEBOYGAN      LGT RAIN  71  67  87 S10       29.89F
6HR MIN TEMP:  71; 6HR MAX TEMP:  77; 6HR PCP:  0.10;

WEST BEND      CLOUDY    70  68  94 SE3       29.91F
JUNEAU         CLOUDY    71  69  95 S9        29.90F THUNDER
6HR MIN TEMP:  69; 6HR MAX TEMP:  72; 6HR PCP:  0.25;

$$

LSZ147-162-240700-
LAKE SUPERIOR

STATION/POSITION TIME  TEMP    WIND        PRES    WAVE
                       AIR SEA DIR/SP/G            HT/PER
                 (UTC) (F)     (DEG/KT/KT) (MB)    (FT/S)
W MID LAKE BUOY  0550   61 57  140/  8/  8 1008.6F   1/ 4
DEVILS ISLAND    0600   64     110/  2/  3 1008.7F
PORT WING        0500   62      30/  9/ 11 1009.8S
SAXON HARBOR     0500   73     190/  3/  8 1009.5
$$

LMZ867-665-643>646-240700-
LAKE MICHIGAN

STATION/POSITION TIME  TEMP    WIND        PRES    WAVE
                       AIR SEA DIR/SP/G            HT/PER
                 (UTC) (F)     (DEG/KT/KT) C1F1C2F2C3F3C4F4C5F5C6F6C7F7C8M1C9M2Ca!


USA.gov is the U.S. government's official web portal to all federal, state and local government web resources and services.